GW0114 Weather Reports


time (UTC)temp
C
wind
direction
speed
KPH
gust
KPH
rain 1hr
cm
rain 24hr
cm
rain mn
cm
humidity
%
barometer
mb
20260509000549 16 0 0.0 0.0 0.00 0.00 0.00 64 1013.5
20260509000053 16 0 0.0 0.0 0.00 0.00 0.00 63 1013.7
20260508235552 16 0 0.0 0.0 0.00 0.00 0.00 64 1013.6
20260508235050 16 0 0.0 0.0 0.00 0.00 0.00 63 1013.5
20260508234552 16 0 0.0 0.0 0.00 0.00 0.00 63 1013.5
20260508234051 16 0 0.0 0.0 0.00 0.00 0.00 63 1013.5
20260508233549 16 0 0.0 0.0 0.00 0.00 0.00 62 1013.5
20260508233118 16 0 0.0 0.0 0.00 0.00 0.00 62 1013.6
20260508232553 17 0 0.0 0.0 0.00 0.00 0.00 62 1013.4
20260508232049 17 0 0.0 0.0 0.00 0.00 0.00 61 1013.4
20260508231551 17 0 0.0 0.0 0.00 0.00 0.00 62 1013.5
20260508231050 17 0 0.0 0.0 0.00 0.00 0.00 61 1013.4
20260508230548 17 0 0.0 0.0 0.00 0.00 0.00 61 1013.2
20260508230058 17 0 0.0 0.0 0.00 0.00 0.00 61 1013.3
20260508225549 17 0 0.0 0.0 0.00 0.00 0.00 61 1013.3
20260508225049 17 0 0.0 0.0 0.00 0.00 0.00 61 1013.1
20260508224551 17 0 0.0 0.0 0.00 0.00 0.00 62 1013.2
20260508224049 17 0 0.0 0.0 0.00 0.00 0.00 60 1013.2
20260508223549 17 0 0.0 0.0 0.00 0.00 0.00 60 1013.3
20260508223055 17 0 0.0 0.0 0.00 0.00 0.00 59 1013.4
20260508222551 18 0 0.0 0.0 0.00 0.00 0.00 60 1013.3
20260508222049 18 0 0.0 0.0 0.00 0.00 0.00 59 1013.4
20260508221552 18 0 0.0 0.0 0.00 0.00 0.00 59 1013.0
20260508221052 18 0 0.0 0.0 0.00 0.00 0.00 59 1013.2
20260508220553 18 0 0.0 0.0 0.00 0.00 0.00 58 1013.1
20260508220100 18 0 0.0 0.0 0.00 0.00 0.00 57 1013.0
20260508215549 18 0 0.0 0.0 0.00 0.00 0.00 59 1013.1
20260508215049 18 0 0.0 0.0 0.00 0.00 0.00 58 1013.2
20260508214601 18 0 0.0 0.0 0.00 0.00 0.00 56 1013.2
20260508214049 18 0 0.0 0.0 0.00 0.00 0.00 56 1013.4
20260508213549 18 0 0.0 0.0 0.00 0.00 0.00 57 1013.5
20260508213053 18 0 0.0 0.0 0.00 0.00 0.00 58 1013.2
20260508212550 18 0 0.0 0.0 0.00 0.00 0.00 56 1013.0
20260508212048 18 0 0.0 0.0 0.00 0.00 0.00 57 1013.1
20260508211558 18 0 0.0 0.0 0.00 0.00 0.00 57 1013.0
20260508211049 18 0 0.0 0.0 0.00 0.00 0.00 58 1013.0
20260508210549 18 0 0.0 0.0 0.00 0.00 0.00 57 1013.1
20260508210059 18 0 0.0 0.0 0.00 0.00 0.00 58 1013.1
20260508205549 18 0 0.0 0.0 0.00 0.00 0.00 57 1013.2
20260508205049 18 0 0.0 0.0 0.00 0.00 0.00 56 1013.2
20260508204550 18 0 0.0 0.0 0.00 0.00 0.00 55 1013.3
20260508204049 18 0 0.0 6.4 0.00 0.00 0.00 55 1013.3
20260508203551 18 0 0.0 6.4 0.00 0.00 0.00 54 1013.4
20260508203101 18 0 0.0 0.0 0.00 0.00 0.00 52 1013.4
20260508202549 18 0 0.0 0.0 0.00 0.00 0.00 55 1013.5
20260508202049 18 0 0.0 0.0 0.00 0.00 0.00 56 1013.4
20260508201554 18 0 0.0 0.0 0.00 0.00 0.00 58 1013.5
20260508201049 18 0 0.0 0.0 0.00 0.00 0.00 57 1013.5
20260508200549 19 0 0.0 0.0 0.00 0.00 0.00 55 1013.5
20260508200100 19 0 0.0 0.0 0.00 0.00 0.00 54 1013.7
20260508195548 19 0 0.0 0.0 0.00 0.00 0.00 53 1013.9
20260508195049 19 0 0.0 0.0 0.00 0.00 0.00 57 1013.8
20260508194609 18 0 0.0 0.0 0.00 0.00 0.00 53 1013.9
20260508194049 18 0 0.0 0.0 0.00 0.00 0.00 54 1014.0
20260508193549 18 0 0.0 0.0 0.00 0.00 0.00 53 1014.1
20260508193110 18 0 0.0 0.0 0.00 0.00 0.00 55 1014.2
20260508192549 18 0 0.0 0.0 0.00 0.00 0.00 54 1014.4
20260508192050 18 0 0.0 0.0 0.00 0.00 0.00 55 1014.4
20260508191601 18 0 0.0 0.0 0.00 0.00 0.00 53 1014.5
20260508191049 18 0 0.0 0.0 0.00 0.00 0.00 52 1014.4
20260508190549 18 0 0.0 0.0 0.00 0.00 0.00 55 1014.5
20260508190053 18 0 0.0 0.0 0.00 0.00 0.00 53 1014.7
20260508185550 18 0 0.0 0.0 0.00 0.00 0.00 55 1014.8
20260508185050 19 0 0.0 4.8 0.00 0.00 0.00 54 1014.7
20260508184607 19 0 0.0 4.8 0.00 0.00 0.00 55 1014.7
20260508184049 19 0 0.0 4.8 0.00 0.00 0.00 55 1015.0
20260508183550 19 0 0.0 4.8 0.00 0.00 0.00 52 1015.1
20260508183054 19 0 0.0 0.0 0.00 0.00 0.00 51 1014.9
20260508182549 20 0 0.0 0.0 0.00 0.00 0.00 49 1015.0
20260508182049 20 0 0.0 0.0 0.00 0.00 0.00 49 1015.1
20260508181601 20 0 0.0 0.0 0.00 0.00 0.00 46 1015.2
20260508181049 20 0 0.0 0.0 0.00 0.00 0.00 44 1015.1
20260508180549 21 0 0.0 0.0 0.00 0.00 0.00 44 1015.2
20260508180101 21 0 0.0 0.0 0.00 0.00 0.00 44 1015.1
20260508175549 21 0 0.0 0.0 0.00 0.00 0.00 42 1015.2
20260508175051 21 0 0.0 0.0 0.00 0.00 0.00 43 1015.3
20260508174603 21 0 0.0 0.0 0.00 0.00 0.00 43 1015.4
20260508174050 20 0 0.0 4.8 0.00 0.00 0.00 45 1015.6
20260508173551 20 0 0.0 4.8 0.00 0.00 0.00 42 1015.7
20260508173058 20 0 0.0 4.8 0.00 0.00 0.00 38 1015.6
20260508172550 21 0 0.0 0.0 0.00 0.00 0.00 41 1015.6
20260508172050 20 0 0.0 0.0 0.00 0.00 0.00 45 1015.7
20260508171554 20 0 0.0 0.0 0.00 0.00 0.00 43 1015.8
20260508171050 20 0 0.0 0.0 0.00 0.00 0.00 47 1015.9
20260508170628 20 0 0.0 0.0 0.00 0.00 0.00 48 1016.0
20260508170050 20 0 0.0 0.0 0.00 0.00 0.00 42 1016.0
20260508165553 20 0 0.0 0.0 0.00 0.00 0.00 43 1016.0
20260508165049 20 0 0.0 0.0 0.00 0.00 0.00 46 1016.1
20260508164553 20 0 0.0 0.0 0.00 0.00 0.00 46 1016.3
20260508164049 20 0 0.0 0.0 0.00 0.00 0.00 45 1016.5
20260508163553 19 0 0.0 0.0 0.00 0.00 0.00 44 1016.4
20260508163053 19 0 0.0 0.0 0.00 0.00 0.00 46 1016.5
20260508162549 19 0 0.0 4.8 0.00 0.00 0.00 49 1016.6
20260508162049 18 0 0.0 4.8 0.00 0.00 0.00 45 1016.7
20260508161557 18 0 0.0 0.0 0.00 0.00 0.00 48 1016.7
20260508161054 18 0 0.0 0.0 0.00 0.00 0.00 48 1016.8
20260508160549 18 0 0.0 0.0 0.00 0.00 0.00 50 1016.8
20260508160121 17 0 0.0 0.0 0.00 0.00 0.00 51 1017.1
20260508155550 17 0 0.0 3.2 0.00 0.00 0.00 56 1017.1
20260508155050 17 0 0.0 3.2 0.00 0.00 0.00 51 1017.1
20260508154557 16 0 0.0 0.0 0.00 0.00 0.00 50 1017.2
20260508154048 16 0 0.0 0.0 0.00 0.00 0.00 56 1017.3
20260508153548 16 0 0.0 0.0 0.00 0.00 0.00 56 1017.3
20260508153055 15 0 0.0 0.0 0.00 0.00 0.00 57 1017.4
20260508152551 15 0 0.0 0.0 0.00 0.00 0.00 65 1017.4
20260508152052 14 0 0.0 0.0 0.00 0.00 0.00 66 1017.4
20260508151553 13 0 0.0 0.0 0.00 0.00 0.00 69 1017.4
20260508151050 12 0 0.0 0.0 0.00 0.00 0.00 77 1017.4
20260508150547 12 0 0.0 0.0 0.00 0.00 0.00 79 1017.3
20260508150052 11 0 0.0 0.0 0.00 0.00 0.00 83 1017.3
20260508145548 11 0 0.0 0.0 0.00 0.00 0.00 87 1017.4
20260508145049 10 0 0.0 0.0 0.00 0.00 0.00 89 1017.4
20260508144549 10 0 0.0 0.0 0.00 0.00 0.00 90 1017.4
20260508144052 9 0 0.0 0.0 0.00 0.00 0.00 89 1017.5
20260508143550 9 0 0.0 0.0 0.00 0.00 0.00 91 1017.6
20260508143103 8 0 0.0 0.0 0.00 0.00 0.00 91 1017.7
20260508142548 8 0 0.0 0.0 0.00 0.00 0.00 92 1017.7
20260508142050 8 0 0.0 0.0 0.00 0.00 0.00 92 1017.7
20260508141604 8 0 0.0 0.0 0.00 0.00 0.00 92 1017.7
20260508141050 8 0 0.0 0.0 0.00 0.00 0.00 92 1017.9
20260508140552 8 0 0.0 0.0 0.00 0.00 0.00 92 1017.9
20260508140052 8 0 0.0 0.0 0.00 0.00 0.00 93 1017.9
20260508135552 7 0 0.0 0.0 0.00 0.00 0.00 93 1017.9
20260508135049 7 0 0.0 0.0 0.00 0.00 0.00 93 1017.9
20260508134554 7 0 0.0 0.0 0.00 0.00 0.00 93 1017.9
20260508134049 7 0 0.0 0.0 0.00 0.00 0.00 93 1017.9
20260508133549 7 0 0.0 0.0 0.00 0.00 0.00 93 1017.9
20260508133058 7 0 0.0 0.0 0.00 0.00 0.00 93 1018.0
20260508132550 7 0 0.0 0.0 0.00 0.00 0.00 93 1018.1
20260508132048 7 0 0.0 0.0 0.00 0.00 0.00 93 1018.2
20260508131555 7 0 0.0 0.0 0.00 0.00 0.00 92 1018.3
20260508131050 7 0 0.0 0.0 0.00 0.00 0.00 92 1018.2
20260508130550 7 0 0.0 0.0 0.00 0.00 0.00 92 1018.2
20260508130057 7 0 0.0 0.0 0.00 0.00 0.00 92 1018.1
20260508125548 7 0 0.0 0.0 0.00 0.00 0.00 92 1018.1
20260508125050 7 0 0.0 0.0 0.00 0.00 0.00 92 1018.0
20260508124555 7 0 0.0 0.0 0.00 0.00 0.00 92 1017.9
20260508124048 7 0 0.0 0.0 0.00 0.00 0.00 92 1017.9
20260508123548 7 0 0.0 0.0 0.00 0.00 0.00 92 1017.8
20260508123055 6 0 0.0 0.0 0.00 0.00 0.00 92 1017.8
20260508122548 6 0 0.0 0.0 0.00 0.00 0.00 92 1017.8
20260508122048 6 0 0.0 0.0 0.00 0.00 0.00 92 1017.8
20260508121606 6 0 0.0 0.0 0.00 0.00 0.00 92 1017.7
20260508121047 6 0 0.0 0.0 0.00 0.00 0.00 92 1017.7
20260508120548 6 0 0.0 0.0 0.00 0.00 0.00 92 1017.5
20260508120053 6 0 0.0 0.0 0.00 0.00 0.00 92 1017.5
20260508115548 6 0 0.0 0.0 0.00 0.33 0.00 92 1017.4
20260508115048 6 0 0.0 0.0 0.00 0.33 0.00 92 1017.4
20260508114558 6 0 0.0 0.0 0.00 0.33 0.00 92 1017.2
20260508114049 6 0 0.0 0.0 0.00 0.33 0.00 92 1017.1
20260508113550 6 0 0.0 0.0 0.00 0.33 0.00 92 1017.1
20260508113104 6 0 0.0 0.0 0.00 0.33 0.00 92 1017.0
20260508112548 6 0 0.0 0.0 0.00 0.33 0.00 91 1017.0
20260508112053 6 0 0.0 0.0 0.00 0.33 0.00 91 1016.8
20260508111553 6 0 0.0 0.0 0.00 0.33 0.00 91 1016.7
20260508111052 6 0 0.0 0.0 0.00 0.33 0.00 91 1016.6
20260508110549 6 0 0.0 0.0 0.00 0.33 0.00 91 1016.5
20260508110057 6 0 0.0 0.0 0.00 0.33 0.00 91 1016.4
20260508105548 6 0 0.0 0.0 0.00 0.58 0.00 91 1016.3
20260508105051 6 0 0.0 0.0 0.00 0.58 0.00 91 1016.3
20260508104552 6 0 0.0 0.0 0.00 0.58 0.00 91 1016.2
20260508104048 7 0 0.0 0.0 0.00 0.58 0.00 91 1016.2
20260508103548 7 0 0.0 0.0 0.00 0.58 0.00 92 1016.1
20260508103055 7 0 0.0 0.0 0.00 0.58 0.00 92 1016.0
20260508102547 7 0 0.0 0.0 0.00 0.58 0.00 92 1016.0
20260508102048 7 0 0.0 0.0 0.00 0.58 0.00 92 1015.8
20260508101552 7 0 0.0 0.0 0.00 0.58 0.00 92 1015.8
20260508101050 7 0 0.0 0.0 0.00 0.58 0.00 92 1015.7
20260508100546 7 0 0.0 0.0 0.00 0.58 0.00 92 1015.6
20260508100050 7 0 0.0 0.0 0.00 0.58 0.00 92 1015.6
20260508095549 7 0 0.0 0.0 0.00 0.58 0.00 92 1015.6
20260508095053 7 0 0.0 0.0 0.00 0.58 0.00 92 1015.5
20260508094605 7 0 0.0 0.0 0.00 0.58 0.00 92 1015.5
20260508094048 7 0 0.0 0.0 0.00 0.58 0.00 92 1015.5
20260508093548 7 0 0.0 0.0 0.00 0.58 0.00 92 1015.4
20260508093053 7 0 0.0 0.0 0.00 0.58 0.00 92 1015.5
20260508092548 7 0 0.0 0.0 0.00 0.58 0.00 92 1015.5
20260508092048 7 0 0.0 0.0 0.00 0.58 0.00 92 1015.5
20260508091555 7 0 0.0 0.0 0.00 0.58 0.00 92 1015.6
20260508091048 7 0 0.0 0.0 0.00 0.58 0.00 92 1015.4
20260508090549 7 0 0.0 0.0 0.00 0.58 0.00 92 1015.3
20260508090053 7 0 0.0 0.0 0.00 0.58 0.00 92 1015.4
20260508085547 7 0 0.0 0.0 0.00 0.58 0.00 92 1015.5
20260508085051 7 0 0.0 0.0 0.00 0.58 0.00 92 1015.3
20260508084551 7 0 0.0 0.0 0.00 0.58 0.00 92 1015.3
20260508084047 7 0 0.0 0.0 0.00 0.58 0.00 92 1015.2
20260508083549 7 0 0.0 0.0 0.00 0.58 0.00 92 1015.1
20260508083131 7 0 0.0 0.0 0.00 0.58 0.00 92 1015.1
20260508082547 7 0 0.0 0.0 0.00 0.58 0.00 92 1014.9
20260508082049 7 0 0.0 0.0 0.00 0.58 0.00 91 1015.0
20260508081555 7 0 0.0 0.0 0.00 0.58 0.00 91 1015.1
20260508081048 7 0 0.0 0.0 0.00 0.58 0.00 91 1015.1
20260508080548 7 0 0.0 0.0 0.00 0.58 0.00 91 1014.7
20260508080056 7 0 0.0 0.0 0.00 0.58 0.00 91 1014.8
20260508075549 7 0 0.0 0.0 0.00 0.58 0.00 91 1014.7
20260508075050 7 0 0.0 0.0 0.00 0.58 0.00 91 1014.8
20260508074552 7 0 0.0 0.0 0.00 0.58 0.00 91 1014.8
20260508074048 7 0 0.0 0.0 0.00 0.58 0.00 91 1014.8
20260508073548 7 0 0.0 0.0 0.00 0.58 0.00 91 1014.7
20260508073058 7 0 0.0 0.0 0.00 0.58 0.00 91 1014.7
20260508072547 7 0 0.0 0.0 0.00 0.58 0.00 91 1014.6
20260508072047 7 0 0.0 0.0 0.00 0.58 0.00 91 1014.5
20260508071555 7 0 0.0 0.0 0.00 0.58 0.00 91 1014.6
20260508071047 7 0 0.0 0.0 0.00 0.58 0.00 91 1014.5
20260508070547 7 0 0.0 0.0 0.00 0.58 0.00 91 1014.6
20260508070050 7 0 0.0 0.0 0.00 0.58 0.00 91 1014.6
20260508065547 7 0 0.0 0.0 0.00 0.58 0.00 90 1014.6
20260508065052 7 0 0.0 0.0 0.00 0.58 0.00 90 1014.8
20260508064608 7 0 0.0 0.0 0.00 0.58 0.00 90 1014.8
20260508064050 7 0 0.0 0.0 0.00 0.58 0.00 91 1014.6
20260508063547 7 0 0.0 0.0 0.00 0.58 0.00 91 1014.7
20260508063050 7 0 0.0 0.0 0.00 0.58 0.00 91 1014.6
20260508062548 7 0 0.0 0.0 0.00 0.58 0.00 90 1014.7
20260508062047 7 0 0.0 0.0 0.00 0.58 0.00 90 1014.7
20260508061552 7 0 0.0 0.0 0.00 0.58 0.00 90 1014.7
20260508061048 8 0 0.0 0.0 0.00 0.58 0.00 90 1014.7
20260508060551 8 0 0.0 0.0 0.00 0.58 0.00 90 1014.7
20260508060059 8 0 0.0 0.0 0.00 0.58 0.00 90 1014.6
20260508055549 8 0 0.0 0.0 0.00 0.81 0.00 90 1014.6
20260508055048 8 0 0.0 0.0 0.00 0.81 0.00 90 1014.7
20260508054556 8 0 0.0 0.0 0.00 0.81 0.00 90 1014.6
20260508054052 8 0 0.0 0.0 0.00 0.81 0.00 90 1014.6
20260508053548 8 0 0.0 0.0 0.00 0.81 0.00 90 1014.7
20260508053101 8 0 0.0 0.0 0.00 0.81 0.00 90 1014.7
20260508052548 8 0 0.0 0.0 0.00 0.81 0.00 90 1014.7
20260508052050 8 0 0.0 0.0 0.00 0.81 0.00 90 1014.9
20260508051553 8 0 0.0 0.0 0.00 0.81 0.00 90 1014.9
20260508051048 8 0 0.0 0.0 0.00 0.81 0.00 90 1014.7
20260508050548 8 0 0.0 0.0 0.00 0.81 0.00 90 1014.8
20260508050100 8 0 0.0 0.0 0.00 0.81 0.00 90 1014.9
20260508045551 8 0 0.0 0.0 0.00 1.09 0.00 90 1014.9
20260508045049 8 0 0.0 0.0 0.00 1.09 0.00 90 1014.8
20260508044551 8 0 0.0 0.0 0.00 1.09 0.00 90 1014.7
20260508044049 8 0 0.0 0.0 0.00 1.09 0.00 90 1014.7
20260508043549 8 0 0.0 0.0 0.00 1.09 0.00 90 1014.6
20260508043055 8 0 0.0 0.0 0.00 1.09 0.00 90 1014.7
20260508042548 8 0 0.0 0.0 0.00 1.09 0.00 90 1014.5
20260508042051 8 0 0.0 0.0 0.00 1.09 0.00 90 1014.6
20260508041552 8 0 0.0 0.0 0.00 1.09 0.00 90 1014.5
20260508041050 8 0 0.0 0.0 0.00 1.09 0.00 89 1014.4
20260508040548 8 0 0.0 0.0 0.00 1.09 0.00 89 1014.5
20260508040055 8 0 0.0 0.0 0.00 1.09 0.00 89 1014.5
20260508035551 8 0 0.0 0.0 0.00 1.12 1.09 89 1014.4
20260508035047 8 0 0.0 0.0 0.00 1.12 1.09 88 1014.5
20260508034555 8 0 0.0 0.0 0.00 1.12 1.09 88 1014.7
20260508034048 8 0 0.0 0.0 0.00 1.12 1.09 88 1014.7
20260508033546 8 0 0.0 0.0 0.00 1.12 1.09 88 1014.7
20260508033101 8 0 0.0 0.0 0.00 1.12 1.09 87 1014.8
20260508032550 8 0 0.0 0.0 0.00 1.12 1.09 87 1014.9
20260508032050 8 0 0.0 0.0 0.00 1.12 1.09 87 1014.9
20260508031553 8 0 0.0 0.0 0.00 1.12 1.09 87 1015.1
20260508031049 9 0 0.0 0.0 0.00 1.12 1.09 87 1015.0
20260508030549 9 0 0.0 0.0 0.00 1.12 1.09 87 1015.1
20260508030104 9 0 0.0 0.0 0.00 1.12 1.09 87 1014.9
20260508025549 9 0 0.0 0.0 0.00 1.19 1.09 86 1015.1
20260508025049 9 0 0.0 0.0 0.00 1.19 1.09 86 1015.1
20260508024558 9 0 0.0 0.0 0.00 1.19 1.09 86 1014.9
20260508024049 9 0 0.0 0.0 0.00 1.19 1.09 86 1014.8
20260508023549 9 0 0.0 0.0 0.00 1.19 1.09 85 1014.7
20260508023054 10 0 0.0 0.0 0.00 1.19 1.09 85 1014.6
20260508022549 10 0 0.0 0.0 0.00 1.19 1.09 85 1014.5
20260508022050 10 0 0.0 0.0 0.00 1.19 1.09 85 1014.4
20260508021551 10 0 0.0 0.0 0.00 1.19 1.09 84 1014.3
20260508021048 10 0 0.0 0.0 0.00 1.19 1.09 84 1014.2
20260508020550 10 0 0.0 0.0 0.00 1.19 1.09 84 1014.1
20260508020050 10 0 0.0 0.0 0.00 1.19 1.09 84 1014.2
20260508015549 10 0 0.0 0.0 0.00 1.27 1.09 84 1014.3
20260508015049 10 0 0.0 0.0 0.00 1.27 1.09 84 1014.2
20260508014552 10 0 0.0 0.0 0.00 1.27 1.09 84 1014.2
20260508014049 10 0 0.0 0.0 0.00 1.27 1.09 84 1014.1
20260508013546 10 0 0.0 0.0 0.00 1.27 1.09 84 1013.9
20260508013053 11 0 0.0 0.0 0.00 1.27 1.09 84 1013.7
20260508012547 11 0 0.0 0.0 0.00 1.27 1.09 83 1013.7
20260508012049 11 0 0.0 0.0 0.00 1.27 1.09 83 1013.7
20260508011603 11 0 0.0 0.0 0.00 1.27 1.09 83 1013.5
20260508011050 11 0 0.0 0.0 0.00 1.27 1.09 83 1013.4
20260508010549 11 0 0.0 0.0 0.00 1.27 1.09 82 1013.4
20260508010104 11 0 0.0 0.0 0.00 1.27 1.09 82 1013.4
20260508005549 11 0 0.0 0.0 0.00 1.47 1.09 82 1013.4
20260508005049 11 0 0.0 0.0 0.00 1.47 1.09 82 1013.3
20260508004602 11 0 0.0 0.0 0.00 1.47 1.09 82 1013.2
20260508004049 11 0 0.0 0.0 0.00 1.47 1.09 81 1013.4
20260508003549 11 0 0.0 0.0 0.00 1.47 1.09 81 1013.4
20260508003109 11 0 0.0 0.0 0.00 1.47 1.09 81 1013.3
20260508002549 11 0 0.0 0.0 0.00 1.47 1.09 80 1013.2
20260508002049 11 0 0.0 3.2 0.00 1.47 1.09 80 1013.1
20260508001550 12 0 0.0 3.2 0.00 1.47 1.09 80 1012.9
20260508001049 12 0 0.0 0.0 0.00 1.47 1.09 79 1012.9